Location: *
(32.8140°S, 174.6161°E)
Time: 14:56:24
(UTC+00:00)

ADEOS II - Pass Details

Date: 10 December 2019
Orbit: 799 x 802 km, 98.5° (Epoch: 23 January)

Event Time Altitude Azimuth Distance (km) Brightness Sun altitude
Exits shadow 13:10:42 22° 96° (E) 1,717 3.9 -32.7°
Maximum altitude 13:11:41 23° 112° (ESE) 1,668 4.0 -32.6°
Drops below altitude 10° 13:15:44 10° 162° (SSE) 2,400 5.4 -32.4°
Sets 13:18:32 0° 176° (S) 3,338 6.4 -32.2°
